AirNav   Air Wisconsin pilot careers
 
 1344 users online  

KEDU University Airport
Davis, California, USA

GOING TO DAVIS?


FAA INFORMATION EFFECTIVE 29 MARCH 2018

Location

FAA Identifier: EDU
Lat/Long: 38-31-53.2585N / 121-47-11.3225W
38-31.887642N / 121-47.188708W
38.5314607 / -121.7864785
(estimated)
Elevation: 69 ft. / 21.0 m (surveyed)
Variation: 14E (2010)
From city: 2 miles W of DAVIS, CA
Time zone: UTC -7 (UTC -8 during Standard Time)
Zip code: 95616

Airport Operations

Airport use: Open to the public
Activation date: 06/1946
Control tower: no
ARTCC: OAKLAND CENTER
FSS: RANCHO MURIETA FLIGHT SERVICE STATION
NOTAMs facility: RIU (NOTAM-D service available)
Attendance: MON-FRI 0800-1200
Pattern altitude: 869 ft. MSL
Wind indicator: lighted
Segmented circle: yes
Lights: ACTVT VASI RY 35; MIRL RY 17/35 - CTAF.
Beacon: white-green (lighted land airport)
Operates sunset to sunrise.

Airport Communications

CTAF/UNICOM: 123.075
WX AWOS-3: 119.025 (530-754-6839)
TRAVIS APPROACH: 126.6
TRAVIS DEPARTURE: 126.6
WX AWOS-3 at DWA (4 nm NW): 125.775 (530-750-2759)
WX ASOS at VCB (12 nm SW): 134.75 (707-448-1594)
WX ASOS at SMF (13 nm NE): PHONE 916-649-3996
WX ASOS at SAC (14 nm E): PHONE 916-421-0923
WX AWOS-3 at MCC (20 nm NE): 125.975 (916-641-1272)

Nearby radio navigation aids

VOR radial/distance  VOR name  Freq  Var
SACr279/12.2SACRAMENTO VORTAC115.2017E
MCCr229/19.7MC CLELLAN VOR/DME109.2017E
CCRr006/31.6CONCORD VOR/DME117.0017E
ILAr143/34.3WILLIAMS VORTAC114.4018E
SGDr036/34.8SCAGGS ISLAND VORTAC112.1017E
MYVr180/35.5MARYSVILLE VOR/DME110.8016E

Airport Services

Fuel available: 100LL
FUEL SELF-SERVICE AVBL 24 HRS.
Parking: tiedowns
Airframe service: MAJOR
Powerplant service: MAJOR
Bottled oxygen: NONE
Bulk oxygen: NONE

Runway Information

Runway 17/35

Dimensions: 3176 x 50 ft. / 968 x 15 m
Surface: asphalt, in good condition
Weight bearing capacity: 
Single wheel: OPNS LTD TO ACFT 12500 LBS OR LESS BY ARPT OWNER.
Runway edge lights: medium intensity
RY 17/35 NSTD MIRL 35 FT FM EDGE OF RY.
RUNWAY 17  RUNWAY 35
Latitude: 38-32.149167N38-31.625917N
Longitude: 121-47.184333W121-47.193000W
Elevation: 61.3 ft.68.0 ft.
Gradient: 0.2%0.2%
Traffic pattern: leftleft
Runway heading: 166 magnetic, 180 true346 magnetic, 000 true
Markings: basic, in good conditionbasic, in good condition
Visual slope indicator: 2-box SAVASI on left (4.25 degrees glide path)
OPERATE CONTINUOUSLY.
2-box VASI on left (3.75 degrees glide path)
Runway end identifier lights: nono
Touchdown point: yes, no lightsyes, no lights
Obstructions: 40 ft. tree, 1113 ft. from runway, 246 ft. left of centerline, 22:1 slope to clear70 ft. trees, 1257 ft. from runway, 15:1 slope to clear

Airport Ownership and Management from official FAA records

Ownership: Publicly-owned
Owner: UNIVERSITY OF CALIFORNIA
OFFICE OF ADMIN. & RESOURCE MGT., TB206
DAVIS, CA 95616
Phone 530-752-0100
Manager: CLIFFORD CONTRERAS
TRANSP. & PARKING SERVICES, 1 SHIELDS AVE
DAVIS, CA 95616-8724
Phone 530-752-5435

Airport Operational Statistics

Aircraft based on the field: 37
Single engine airplanes: 36
Multi engine airplanes: 1
    
Aircraft operations: avg 67/day *
49% local general aviation
41% transient general aviation
10% air taxi
<1% military
* for 12-month period ending 31 December 2016

Additional Remarks

65 FT TREES LCTD SOUTH SIDE OF CREEK 1,257 FT FM THLD RY 35.
TREES +40 FT, WEST SIDE OF RY NEAR RY 17 THLD.
NOISE ABATEMENT, NOISE SENSITIVE AREA NORTH OF AIRPORT.
AFTER HRS EMERGENCY: UC DAVIS POLICE 530-752-1230. AFTER HRS NON-EMERGENCY: UC DAVIS POLICE 530-752-1727.
CAUTION: REMOTE CONTROL ACFT WITHIN AREA DEFINED AS 0.5NM RAD OF 3835N/12142W (5NM NE EDU), SFC-1,200 FT AGL, SR-SS.

Instrument Procedures

NOTE: All procedures below are presented as PDF files. If you need a reader for these files, you should download the free Adobe Reader.

NOT FOR NAVIGATION. Please procure official charts for flight.
FAA instrument procedures published for use from 29 March 2018 at 0901Z to 26 April 2018 at 0900Z.

 
IAPs - Instrument Approach Procedures
RNAV (GPS) RWY 17   download (162KB)
NOTE: Special Take-Off Minimums/Departure Procedures apply   download (128KB)

Other nearby airports with instrument procedures:

KDWA - Yolo County Airport (4 nm NW)
O41 - Watts-Woodland Airport (9 nm NW)
KVCB - Nut Tree Airport (12 nm SW)
KSMF - Sacramento International Airport (13 nm NE)
KSAC - Sacramento Executive Airport (14 nm E)
KSUU - Travis Air Force Base (17 nm S)
KMCC - Mc Clellan Airfield (20 nm NE)
 
Loc | Ops | Rwys | IFR | FBO | Links
Com | Nav | Svcs | Stats | Notes

Sonoma Jet Center
 
Area around KEDU (University Airport)
 
Road maps at: MapQuest Bing Google
 
Aerial photo
WARNING: Photo may not be current or correct
Aerial photo of KEDU (University Airport)
Do you have a better or more recent aerial photo of University Airport that you would like to share? If so, please send us your photo.

 
Sectional chart

 
Airport distance calculator
Flying to University Airport? Find the distance to fly.

From to KEDU

Sunrise and sunset
Times for 20-Apr-2018
 Local
(UTC-7)
 Zulu
(UTC)
Morning civil twilight05:5712:57
Sunrise06:2513:25
Sunset19:4702:47
Evening civil twilight20:1503:15

Current date and time
Zulu (UTC)  20-Apr-2018 20:39:23
Local (UTC-7)  20-Apr-2018 13:39:23
 
METAR
KEDU 202020Z AUTO 33005KT 10SM CLR 24/05 A3013 RMK AO1
KVCB 
12nm SW 
201953Z AUTO 00000KT 10SM CLR 25/08 A3014 RMK AO2 SLP207 T02500078
KSMF 
13nm NE 
201953Z 00000KT 10SM CLR 23/07 A3012 RMK AO2 SLP200 T02280072
KSAC 
14nm E 
201953Z VRB03KT 10SM CLR 23/08 A3013 RMK AO2 SLP202 T02330078
KSUU 
17nm S 
201958Z AUTO 25007KT 10SM CLR 22/10 A3012 RMK AO2 SLP206 T02230098 $
KMCC 
20nm NE 
202015Z AUTO 32005KT 10SM CLR 22/07 A3013 RMK AO2
TAF
KSMF 
13nm NE 
201720Z 2018/2118 30007KT P6SM SKC FM210000 18007KT P6SM SKC
KSAC 
14nm E 
201720Z 2018/2118 28006KT P6SM SKC FM210000 21007KT P6SM SKC
KSUU 
17nm S 
201901Z 2019/2201 25009KT 9999 SKC QNH3005INS TEMPO 2020/2024 25012G18KT BECMG 2108/2109 VRB06KT 9999 SKC QNH3007INS BECMG 2117/2118 26009KT 9999 SKC QNH2999INS TX25/2021Z TN10/2112Z
NOTAMs
Click for the latest NOTAMs
NOTAMs are issued by the DoD/FAA and will open in a separate window not controlled by AirNav.

 

 
 

FBO, Fuel Providers, and Aircraft Ground Support

  
 Business Name 
 
 Contact 
 
 Services / Description 
 
Fuel Prices
 
Comments
  
University Airport Services 530-752-0100
no information available

If you are affiliated with University Airport Services and would like to show here your services, contact info, web link, logo, and more, click here
100LL
SS $4.41 
 Updated 16-Apr-2018
 
   write
SS=Self service
Update Fuel Prices
 

Would you like to see your business listed on this page?

 If your business provides an interesting product or service to pilots, flight crews, aircraft, or users of the University Airport, you should consider listing it here.  To start the listing process, click on the button below
 
Add a business
 

Other Pages about University Airport

taps.ucdavis.edu/airport
AWOS/ASOS display
 
Update a link
 
Copyright © AirNav, LLC. All rights reserved. Privacy Policy  Contact